Date,TemperatureHighF,TemperatureAvgF,TemperatureLowF,DewpointHighF,DewpointAvgF,DewpointLowF,HumidityHigh,HumidityAvg,HumidityLow,PressureMaxIn,PressureMinIn,WindSpeedMaxMPH,WindSpeedAvgMPH,GustSpeedMaxMPH,PrecipitationSumIn
2013-1-1,49,46,39,-100,-100,-100,0,0,100,0.00,40.00,0,-999,0,0.00
2013-1-2,41,37,34,-100,-100,-100,0,0,100,0.00,40.00,0,-999,0,0.00
2013-1-3,48,34,24,-100,-100,-100,0,0,100,0.00,40.00,0,-999,0,0.00
2013-1-4,48,43,37,-100,-100,-100,0,0,100,0.00,40.00,0,-999,0,0.00
2013-1-5,51,42,33,-100,-100,-100,0,0,100,0.00,40.00,0,-999,0,0.00
2013-1-6,60,41,28,-100,-100,-100,0,0,100,0.00,40.00,0,-999,0,0.00
2013-1-7,57,41,23,-100,-100,-100,0,0,100,0.00,40.00,0,-999,0,0.00
2013-1-8,56,48,42,-100,-100,-100,0,0,100,0.00,40.00,0,-999,0,0.00
2013-1-9,60,58,56,-100,-100,-100,0,0,100,0.00,40.00,0,-999,0,0.00
2013-1-10,63,58,43,-100,-100,-100,0,0,100,0.00,40.00,0,-999,0,0.00
2013-1-11,70,54,43,-100,-100,-100,0,0,100,0.00,40.00,0,-999,0,0.00
2013-1-12,69,65,50,-100,-100,-100,0,0,100,0.00,40.00,0,-999,0,0.00
2013-1-13,49,39,31,-100,-100,-100,0,0,100,0.00,40.00,0,-999,0,0.00
2013-1-14,49,35,28,-100,-100,-100,0,0,100,0.00,40.00,0,-999,0,0.00
2013-1-15,33,31,29,-100,-100,-100,0,0,100,0.00,40.00,0,-999,0,0.00
2013-1-16,49,35,25,-100,-100,-100,0,0,100,0.00,40.00,0,-999,0,0.00
2013-1-17,62,35,21,-100,-100,-100,0,0,100,0.00,40.00,0,-999,0,0.00
2013-1-18,62,42,28,-100,-100,-100,0,0,100,0.00,40.00,0,-999,0,0.00
2013-1-19,62,42,32,-100,-100,-100,0,0,100,0.00,40.00,0,-999,0,0.00
2013-1-20,67,48,36,-100,-100,-100,0,0,100,0.00,40.00,0,-999,0,0.00
2013-1-21,64,49,41,-100,-100,-100,0,0,100,0.00,40.00,0,-999,0,0.00
2013-1-22,66,48,35,-100,-100,-100,0,0,100,0.00,40.00,0,-999,0,0.00
2013-1-23,70,55,45,-100,-100,-100,0,0,100,0.00,40.00,0,-999,0,0.00
2013-1-24,70,61,52,-100,-100,-100,0,0,100,0.00,40.00,0,-999,0,0.00
2013-1-25,72,62,53,-100,-100,-100,0,0,100,0.00,40.00,0,-999,0,0.00
2013-1-26,57,54,52,-100,-100,-100,0,0,100,0.00,40.00,0,-999,0,0.00
2013-1-27,74,63,55,-100,-100,-100,0,0,100,0.00,40.00,0,-999,0,0.00
2013-1-28,77,69,65,-100,-100,-100,0,0,100,0.00,40.00,0,-999,0,0.00
2013-1-29,74,66,54,-100,-100,-100,0,0,100,0.00,40.00,0,-999,0,0.00
2013-1-30,58,48,32,-100,-100,-100,0,0,100,0.00,40.00,0,-999,0,0.00
2013-1-31,65,48,26,-100,-100,-100,0,0,100,0.00,40.00,0,-999,0,0.00
2013-2-1,69,51,41,-100,-100,-100,0,0,100,0.00,40.00,0,-999,0,0.00
2013-2-2,73,54,42,-100,-100,-100,0,0,100,0.00,40.00,0,-999,0,0.00
2013-2-3,72,49,33,-100,-100,-100,0,0,100,0.00,40.00,0,-999,0,0.00
2013-2-4,67,57,49,-100,-100,-100,0,0,100,0.00,40.00,0,-999,0,0.00
2013-2-5,72,63,58,-100,-100,-100,0,0,100,0.00,40.00,0,-999,0,0.00
2013-2-6,63,61,58,-100,-100,-100,0,0,100,0.00,40.00,0,-999,0,0.00
2013-2-7,68,60,55,-100,-100,-100,0,0,100,0.00,40.00,0,-999,0,0.00
2013-2-8,69,55,46,-100,-100,-100,0,0,100,0.00,40.00,0,-999,0,0.00
2013-2-9,57,49,43,-100,-100,-100,0,0,100,0.00,40.00,0,-999,0,0.00
2013-2-10,69,64,58,-100,-100,-100,0,0,100,0.00,40.00,0,-999,0,0.00
2013-2-11,56,52,46,-100,-100,-100,0,0,100,0.00,40.00,0,-999,0,0.00
2013-2-12,56,49,44,-100,-100,-100,0,0,100,0.00,40.00,0,-999,0,0.00
2013-2-13,53,42,33,-100,-100,-100,0,0,100,0.00,40.00,0,-999,0,0.00
2013-2-14,66,46,29,-100,-100,-100,0,0,100,0.00,40.00,0,-999,0,0.00
2013-2-15,55,46,36,-100,-100,-100,0,0,100,0.00,40.00,0,-999,0,0.00
2013-2-16,60,40,26,-100,-100,-100,0,0,100,0.00,40.00,0,-999,0,0.00
2013-2-17,70,51,32,-100,-100,-100,0,0,100,0.00,40.00,0,-999,0,0.00
2013-2-18,74,58,53,-100,-100,-100,0,0,100,0.00,40.00,0,-999,0,0.00
2013-2-19,66,51,36,-100,-100,-100,0,0,100,0.00,40.00,0,-999,0,0.00
2013-2-20,51,49,48,-100,-100,-100,0,0,100,0.00,40.00,0,-999,0,0.00
2013-2-21,72,56,46,-100,-100,-100,0,0,100,0.00,40.00,0,-999,0,0.00
2013-2-22,62,46,40,-100,-100,-100,0,0,100,0.00,40.00,0,-999,0,0.00
2013-2-23,63,47,31,-100,-100,-100,0,0,100,0.00,40.00,0,-999,0,0.00
2013-2-24,71,54,36,-100,-100,-100,0,0,100,0.00,40.00,0,-999,0,0.00
2013-2-25,68,56,43,-100,-100,-100,0,0,100,0.00,40.00,0,-999,0,0.00
2013-2-26,64,49,39,-100,-100,-100,0,0,100,0.00,40.00,0,-999,0,0.00
2013-2-27,65,52,31,-100,-100,-100,0,0,100,0.00,40.00,0,-999,0,0.00
2013-2-28,60,42,31,-100,-100,-100,0,0,100,0.00,40.00,0,-999,0,0.00
2013-3-1,60,43,27,-100,-100,-100,0,0,100,0.00,40.00,0,-999,0,0.00
2013-3-2,55,37,29,-100,-100,-100,0,0,100,0.00,40.00,0,-999,0,0.00
2013-3-3,70,43,25,-100,-100,-100,0,0,100,0.00,40.00,0,-999,0,0.00
2013-3-4,77,64,49,-100,-100,-100,0,0,100,0.00,40.00,0,-999,0,0.00
2013-3-5,65,56,46,-100,-100,-100,0,0,100,0.00,40.00,0,-999,0,0.00
2013-3-6,67,42,26,-100,-100,-100,0,0,100,0.00,40.00,0,-999,0,0.00
2013-3-7,73,50,36,-100,-100,-100,0,0,100,0.00,40.00,0,-999,0,0.00
2013-3-8,67,58,48,-100,-100,-100,0,0,100,0.00,40.00,0,-999,0,0.00
2013-3-9,72,64,58,-100,-100,-100,0,0,100,0.00,40.00,0,-999,0,0.00
2013-3-10,65,58,46,-100,-100,-100,0,0,100,0.00,40.00,0,-999,0,0.00
2013-3-11,62,43,34,-100,-100,-100,0,0,100,0.00,40.00,0,-999,0,0.00
2013-3-12,71,48,29,-100,-100,-100,0,0,100,0.00,40.00,0,-999,0,0.00
2013-3-13,74,54,38,-100,-100,-100,0,0,100,0.00,40.00,0,-999,0,0.00
2013-3-14,77,53,41,-100,-100,-100,0,0,100,0.00,40.00,0,-999,0,0.00
2013-3-15,77,58,46,-100,-100,-100,0,0,100,0.00,40.00,0,-999,0,0.00
2013-3-16,82,67,58,-100,-100,-100,0,0,100,0.00,40.00,0,-999,0,0.00
2013-3-17,79,72,63,-100,-100,-100,0,0,100,0.00,40.00,0,-999,0,0.00
2013-3-18,84,70,60,-100,-100,-100,0,0,100,0.00,40.00,0,-999,0,0.00
2013-3-19,77,64,50,-100,-100,-100,0,0,100,0.00,40.00,0,-999,0,0.00
2013-3-20,75,60,44,-100,-100,-100,0,0,100,0.00,40.00,0,-999,0,0.00
2013-3-21,68,57,47,-100,-100,-100,0,0,100,0.00,40.00,0,-999,0,0.00
2013-3-22,81,67,55,-100,-100,-100,0,0,100,0.00,40.00,0,-999,0,0.00
2013-3-23,55,54,51,-100,-100,-100,0,0,100,0.00,40.00,0,-999,0,0.00
2013-3-24,60,50,43,-100,-100,-100,0,0,100,0.00,40.00,0,-999,0,0.00
2013-3-25,63,42,29,-100,-100,-100,0,0,100,0.00,40.00,0,-999,0,0.00
2013-3-26,65,39,25,-100,-100,-100,0,0,100,0.00,40.00,0,-999,0,0.00
2013-3-27,74,46,30,-100,-100,-100,0,0,100,0.00,40.00,0,-999,0,0.00
2013-3-28,73,66,51,-100,-100,-100,0,0,100,0.00,40.00,0,-999,0,0.00
2013-3-29,76,65,57,-100,-100,-100,0,0,100,0.00,40.00,0,-999,0,0.00
2013-3-30,80,69,58,-100,-100,-100,0,0,100,0.00,40.00,0,-999,0,0.00
2013-3-31,79,70,64,-100,-100,-100,0,0,100,0.00,40.00,0,-999,0,0.00
2013-4-1,85,65,53,-100,-100,-100,0,0,100,0.00,40.00,0,-999,0,0.00
2013-4-2,77,65,59,-100,-100,-100,0,0,100,0.00,40.00,0,-999,0,0.00
2013-4-3,61,52,48,-100,-100,-100,0,0,100,0.00,40.00,0,-999,0,0.00
2013-4-4,52,47,43,-100,-100,-100,0,0,100,0.00,40.00,0,-999,0,0.00
2013-4-5,73,52,36,-100,-100,-100,0,0,100,0.00,40.00,0,-999,0,0.00
2013-4-6,79,61,48,-100,-100,-100,0,0,100,0.00,40.00,0,-999,0,0.00
2013-4-7,76,66,57,-100,-100,-100,0,0,100,0.00,40.00,0,-999,0,0.00
2013-4-8,80,70,63,-100,-100,-100,0,0,100,0.00,40.00,0,-999,0,0.00
2013-4-9,84,74,67,-100,-100,-100,0,0,100,0.00,40.00,0,-999,0,0.00
2013-4-10,70,56,41,-100,-100,-100,0,0,100,0.00,40.00,0,-999,0,0.00
2013-4-11,68,55,39,-100,-100,-100,0,0,100,0.00,40.00,0,-999,0,0.00
2013-4-12,82,51,35,-100,-100,-100,0,0,100,0.00,40.00,0,-999,0,0.00
2013-4-13,82,59,46,-100,-100,-100,0,0,100,0.00,40.00,0,-999,0,0.00
2013-4-14,83,68,51,-100,-100,-100,0,0,100,0.00,40.00,0,-999,0,0.00
2013-4-15,86,73,67,-100,-100,-100,0,0,100,0.00,40.00,0,-999,0,0.00
2013-4-16,86,77,70,-100,-100,-100,0,0,100,0.00,40.00,0,-999,0,0.00
2013-4-17,82,76,72,-100,-100,-100,0,0,100,0.00,40.00,0,-999,0,0.00
2013-4-18,72,57,49,-100,-100,-100,0,0,100,0.00,40.00,0,-999,0,0.00
2013-4-19,69,48,34,-100,-100,-100,0,0,100,0.00,40.00,0,-999,0,0.00
2013-4-20,77,51,34,-100,-100,-100,0,0,100,0.00,40.00,0,-999,0,0.00
2013-4-21,74,56,43,-100,-100,-100,0,0,100,0.00,40.00,0,-999,0,0.00
2013-4-22,77,64,48,-100,-100,-100,0,0,100,0.00,40.00,0,-999,0,0.00
2013-4-23,80,66,50,-100,-100,-100,0,0,100,0.00,40.00,0,-999,0,0.00
2013-4-24,68,53,41,-100,-100,-100,0,0,100,0.00,40.00,0,-999,0,0.00
2013-4-25,79,62,51,-100,-100,-100,0,0,100,0.00,40.00,0,-999,0,0.00
2013-4-26,80,68,59,-100,-100,-100,0,0,100,0.00,40.00,0,-999,0,0.00
2013-4-27,81,72,67,-100,-100,-100,0,0,100,0.00,40.00,0,-999,0,0.00
2013-4-28,86,70,60,-100,-100,-100,0,0,100,0.00,40.00,0,-999,0,0.00
2013-4-29,87,74,62,-100,-100,-100,0,0,100,0.00,40.00,0,-999,0,0.00
2013-4-30,80,71,59,-100,-100,-100,0,0,100,0.00,40.00,0,-999,0,0.00
2013-5-1,87,72,62,-100,-100,-100,0,0,100,0.00,40.00,0,-999,0,0.00
2013-5-2,67,56,46,-100,-100,-100,0,0,100,0.00,40.00,0,-999,0,0.00
2013-5-3,70,53,41,-100,-100,-100,0,0,100,0.00,40.00,0,-999,0,0.00
2013-5-4,80,59,35,-100,-100,-100,0,0,100,0.00,40.00,0,-999,0,0.00
2013-5-5,75,54,41,-100,-100,-100,0,0,100,0.00,40.00,0,-999,0,0.00
2013-5-6,81,62,41,-100,-100,-100,0,0,100,0.00,40.00,0,-999,0,0.00
2013-5-7,82,67,56,-100,-100,-100,0,0,100,0.00,40.00,0,-999,0,0.00
2013-5-8,88,73,62,-100,-100,-100,0,0,100,0.00,40.00,0,-999,0,0.00
2013-5-9,75,70,66,-100,-100,-100,0,0,100,0.00,40.00,0,-999,0,0.00
2013-5-10,86,72,64,-100,-100,-100,0,0,100,0.00,40.00,0,-999,0,0.00
2013-5-11,85,72,63,-100,-100,-100,0,0,100,0.00,40.00,0,-999,0,0.00
2013-5-12,84,68,54,-100,-100,-100,0,0,100,0.00,40.00,0,-999,0,0.00
2013-5-13,87,70,46,-100,-100,-100,0,0,100,0.00,40.00,0,-999,0,0.00
2013-5-14,87,68,58,-100,-100,-100,0,0,100,0.00,40.00,0,-999,0,0.00
2013-5-15,72,69,67,-100,-100,-100,0,0,100,0.00,40.00,0,-999,0,0.00
2013-5-16,77,70,62,-100,-100,-100,0,0,100,0.00,40.00,0,-999,0,0.00
2013-5-17,90,78,70,-100,-100,-100,0,0,100,0.00,40.00,0,-999,0,0.00
2013-5-18,90,78,70,-100,-100,-100,0,0,100,0.00,40.00,0,-999,0,0.00
2013-5-19,90,78,69,-100,-100,-100,0,0,100,0.00,40.00,0,-999,0,0.00
2013-5-20,89,78,70,-100,-100,-100,0,0,100,0.00,40.00,0,-999,0,0.00
2013-5-21,87,72,66,-100,-100,-100,0,0,100,0.00,40.00,0,-999,0,0.00
2013-5-22,89,74,62,-100,-100,-100,0,0,100,0.00,40.00,0,-999,0,0.00
2013-5-23,86,77,68,-100,-100,-100,0,0,100,0.00,40.00,0,-999,0,0.00
2013-5-24,84,76,68,-100,-100,-100,0,0,100,0.00,40.00,0,-999,0,0.00
2013-5-25,83,74,66,-100,-100,-100,0,0,100,0.00,40.00,0,-999,0,0.00
2013-5-26,86,76,70,-100,-100,-100,0,0,100,0.00,40.00,0,-999,0,0.00
2013-5-27,87,77,67,-100,-100,-100,0,0,100,0.00,40.00,0,-999,0,0.00
2013-5-28,86,77,70,-100,-100,-100,0,0,100,0.00,40.00,0,-999,0,0.00
2013-5-29,84,77,72,-100,-100,-100,0,0,100,0.00,40.00,0,-999,0,0.00
2013-5-30,86,80,72,-100,-100,-100,0,0,100,0.00,40.00,0,-999,0,0.00
2013-5-31,90,83,74,-100,-100,-100,0,0,100,0.00,40.00,0,-999,0,0.00
2013-6-1,93,81,74,-100,-100,-100,0,0,100,0.00,40.00,0,-999,0,0.00
2013-6-2,84,77,63,-100,-100,-100,0,0,100,0.00,40.00,0,-999,0,0.00
2013-6-3,90,71,58,-100,-100,-100,0,0,100,0.00,40.00,0,-999,0,0.00
2013-6-4,91,78,67,-100,-100,-100,0,0,100,0.00,40.00,0,-999,0,0.00
2013-6-5,93,79,67,-100,-100,-100,0,0,100,0.00,40.00,0,-999,0,0.00
2013-6-6,79,73,67,-100,-100,-100,0,0,100,0.00,40.00,0,-999,0,0.00
2013-6-7,84,70,63,-100,-100,-100,0,0,100,0.00,40.00,0,-999,0,0.00
2013-6-8,90,70,60,-100,-100,-100,0,0,100,0.00,40.00,0,-999,0,0.00
2013-6-9,90,74,69,-100,-100,-100,0,0,100,0.00,40.00,0,-999,0,0.00
2013-6-10,94,76,67,-100,-100,-100,0,0,100,0.00,40.00,0,-999,0,0.00
2013-6-11,91,76,72,-100,-100,-100,0,0,100,0.00,40.00,0,-999,0,0.00
2013-6-12,93,78,72,-100,-100,-100,0,0,100,0.00,40.00,0,-999,0,0.00
2013-6-13,96,79,72,-100,-100,-100,0,0,100,0.00,40.00,0,-999,0,0.00
2013-6-14,93,81,71,-100,-100,-100,0,0,100,0.00,40.00,0,-999,0,0.00
2013-6-15,91,78,68,-100,-100,-100,0,0,100,0.00,40.00,0,-999,0,0.00
2013-6-16,95,81,74,-100,-100,-100,0,0,100,0.00,40.00,0,-999,0,0.00
2013-6-17,90,81,74,-100,-100,-100,0,0,100,0.00,40.00,0,-999,0,0.00
2013-6-18,87,79,75,-100,-100,-100,0,0,100,0.00,40.00,0,-999,0,0.00
2013-6-19,91,79,69,-100,-100,-100,0,0,100,0.00,40.00,0,-999,0,0.00
2013-6-20,89,77,72,-100,-100,-100,0,0,100,0.00,40.00,0,-999,0,0.00
2013-6-22,94,88,82,-100,-100,-100,0,0,100,0.00,40.00,0,-999,0,0.00
2013-6-23,91,80,73,-100,-100,-100,0,0,100,0.00,40.00,0,-999,0,0.00
2013-6-24,94,81,72,-100,-100,-100,0,0,100,0.00,40.00,0,-999,0,0.00
2013-6-25,93,82,73,-100,-100,-100,0,0,100,0.00,40.00,0,-999,0,0.00
2013-6-26,95,81,73,-100,-100,-100,0,0,100,0.00,40.00,0,-999,0,0.00
2013-6-27,97,82,74,-100,-100,-100,0,0,100,0.00,40.00,0,-999,0,0.00
2013-6-28,99,83,72,-100,-100,-100,0,0,100,0.00,40.00,0,-999,0,0.00
2013-6-29,95,83,71,-100,-100,-100,0,0,100,0.00,40.00,0,-999,0,0.00
2013-6-30,94,84,72,-100,-100,-100,0,0,100,0.00,40.00,0,-999,0,0.00
2013-7-1,89,74,63,-100,-100,-100,0,0,100,0.00,40.00,0,-999,0,0.00
2013-7-2,93,75,62,-100,-100,-100,0,0,100,0.00,40.00,0,-999,0,0.00
2013-7-3,91,76,63,-100,-100,-100,0,0,100,0.00,40.00,0,-999,0,0.00
2013-7-4,93,74,67,-100,-100,-100,0,0,100,0.00,40.00,0,-999,0,0.00
2013-7-5,92,77,65,-100,-100,-100,0,0,100,0.00,40.00,0,-999,0,0.00
2013-7-6,89,77,68,-100,-100,-100,0,0,100,0.00,40.00,0,-999,0,0.00
2013-7-7,91,83,73,-100,-100,-100,0,0,100,0.00,40.00,0,-999,0,0.00
2013-7-8,90,79,72,-100,-100,-100,0,0,100,0.00,40.00,0,-999,0,0.00
2013-7-9,96,81,72,-100,-100,-100,0,0,100,0.00,40.00,0,-999,0,0.00
2013-7-10,94,82,74,-100,-100,-100,0,0,100,0.00,40.00,0,-999,0,0.00
2013-7-11,92,81,73,-100,-100,-100,0,0,100,0.00,40.00,0,-999,0,0.00
2013-7-12,96,82,69,-100,-100,-100,0,0,100,0.00,40.00,0,-999,0,0.00
2013-7-13,96,84,74,-100,-100,-100,0,0,100,0.00,40.00,0,-999,0,0.00
2013-7-14,77,74,70,-100,-100,-100,0,0,100,0.00,40.00,0,-999,0,0.00
2013-7-15,77,71,67,-100,-100,-100,0,0,100,0.00,40.00,0,-999,0,0.00
2013-7-16,84,76,69,-100,-100,-100,0,0,100,0.00,40.00,0,-999,0,0.00
2013-7-17,82,74,69,-100,-100,-100,0,0,100,0.00,40.00,0,-999,0,0.00
2013-7-18,90,80,69,-100,-100,-100,0,0,100,0.00,40.00,0,-999,0,0.00
2013-7-19,79,73,69,-100,-100,-100,0,0,100,0.00,40.00,0,-999,0,0.00
2013-7-20,86,75,67,-100,-100,-100,0,0,100,0.00,40.00,0,-999,0,0.00
2013-7-21,93,80,70,-100,-100,-100,0,0,100,0.00,40.00,0,-999,0,0.00
2013-7-22,91,81,74,-100,-100,-100,0,0,100,0.00,40.00,0,-999,0,0.00
2013-7-23,93,83,75,-100,-100,-100,0,0,100,0.00,40.00,0,-999,0,0.00
2013-7-24,89,83,74,-100,-100,-100,0,0,100,0.00,40.00,0,-999,0,0.00
2013-7-25,91,84,73,-100,-100,-100,0,0,100,0.00,40.00,0,-999,0,0.00
2013-7-26,92,84,74,-100,-100,-100,0,0,100,0.00,40.00,0,-999,0,0.00
2013-7-27,85,80,70,-100,-100,-100,0,0,100,0.00,40.00,0,-999,0,0.00
2013-7-28,89,79,66,-100,-100,-100,0,0,100,0.00,40.00,0,-999,0,0.00
2013-7-29,92,82,73,-100,-100,-100,0,0,100,0.00,40.00,0,-999,0,0.00
2013-7-30,96,83,74,-100,-100,-100,0,0,100,0.00,40.00,0,-999,0,0.00
2013-7-31,96,87,74,-100,-100,-100,0,0,100,0.00,40.00,0,-999,0,0.00
2013-8-1,99,86,75,-100,-100,-100,0,0,100,0.00,40.00,0,-999,0,0.00
2013-8-2,98,86,75,-100,-100,-100,0,0,100,0.00,40.00,0,-999,0,0.00
2013-8-3,96,85,74,-100,-100,-100,0,0,100,0.00,40.00,0,-999,0,0.00
2013-8-4,96,86,75,-100,-100,-100,0,0,100,0.00,40.00,0,-999,0,0.00
2013-8-5,96,84,75,-100,-100,-100,0,0,100,0.00,40.00,0,-999,0,0.00
2013-8-6,98,84,74,-100,-100,-100,0,0,100,0.00,40.00,0,-999,0,0.00
2013-8-7,98,86,75,-100,-100,-100,0,0,100,0.00,40.00,0,-999,0,0.00
2013-8-8,98,86,75,-100,-100,-100,0,0,100,0.00,40.00,0,-999,0,0.00
2013-8-9,98,88,75,-100,-100,-100,0,0,100,0.00,40.00,0,-999,0,0.00
2013-8-10,98,83,75,-100,-100,-100,0,0,100,0.00,40.00,0,-999,0,0.00
2013-8-11,95,83,72,-100,-100,-100,0,0,100,0.00,40.00,0,-999,0,0.00
2013-8-12,94,82,73,-100,-100,-100,0,0,100,0.00,40.00,0,-999,0,0.00
2013-8-13,91,82,75,-100,-100,-100,0,0,100,0.00,40.00,0,-999,0,0.00
2013-8-14,89,81,73,-100,-100,-100,0,0,100,0.00,40.00,0,-999,0,0.00
2013-8-15,91,82,72,-100,-100,-100,0,0,100,0.00,40.00,0,-999,0,0.00
2013-8-16,89,79,68,-100,-100,-100,0,0,100,0.00,40.00,0,-999,0,0.00
2013-8-17,91,74,65,-100,-100,-100,0,0,100,0.00,40.00,0,-999,0,0.00
2013-8-18,92,74,63,-100,-100,-100,0,0,100,0.00,40.00,0,-999,0,0.00
2013-8-19,93,75,67,-100,-100,-100,0,0,100,0.00,40.00,0,-999,0,0.00
2013-8-20,93,79,68,-100,-100,-100,0,0,100,0.00,40.00,0,-999,0,0.00
2013-8-21,91,78,69,-100,-100,-100,0,0,100,0.00,40.00,0,-999,0,0.00
2013-8-22,87,79,74,-100,-100,-100,0,0,100,0.00,40.00,0,-999,0,0.00
2013-8-23,94,80,72,-100,-100,-100,0,0,100,0.00,40.00,0,-999,0,0.00
2013-8-24,91,81,72,-100,-100,-100,0,0,100,0.00,40.00,0,-999,0,0.00
2013-8-25,91,81,70,-100,-100,-100,0,0,100,0.00,40.00,0,-999,0,0.00
2013-8-26,87,79,71,-100,-100,-100,0,0,100,0.00,40.00,0,-999,0,0.00
2013-8-27,89,78,70,-100,-100,-100,0,0,100,0.00,40.00,0,-999,0,0.00
2013-8-28,91,88,82,-100,-100,-100,0,0,100,0.00,40.00,0,-999,0,0.00
2013-8-29,94,79,72,-100,-100,-100,0,0,100,0.00,40.00,0,-999,0,0.00
2013-8-30,94,82,74,-100,-100,-100,0,0,100,0.00,40.00,0,-999,0,0.00
2013-8-31,97,85,74,-100,-100,-100,0,0,100,0.00,40.00,0,-999,0,0.00
2013-9-1,96,84,75,-100,-100,-100,0,0,100,0.00,40.00,0,-999,0,0.00
2013-9-2,94,82,74,-100,-100,-100,0,0,100,0.00,40.00,0,-999,0,0.00
2013-9-3,94,81,72,-100,-100,-100,0,0,100,0.00,40.00,0,-999,0,0.00
2013-9-4,89,78,72,-100,-100,-100,0,0,100,0.00,40.00,0,-999,0,0.00
2013-9-5,93,81,70,-100,-100,-100,0,0,100,0.00,40.00,0,-999,0,0.00
2013-9-6,85,77,70,-100,-100,-100,0,0,100,0.00,40.00,0,-999,0,0.00
2013-9-7,85,77,72,-100,-100,-100,0,0,100,0.00,40.00,0,-999,0,0.00
2013-9-8,92,80,67,-100,-100,-100,0,0,100,0.00,40.00,0,-999,0,0.00
2013-9-9,91,80,67,-100,-100,-100,0,0,100,0.00,40.00,0,-999,0,0.00
2013-9-10,91,80,70,-100,-100,-100,0,0,100,0.00,40.00,0,-999,0,0.00
2013-9-11,91,78,70,-100,-100,-100,0,0,100,0.00,40.00,0,-999,0,0.00
2013-9-12,91,75,68,-100,-100,-100,0,0,100,0.00,40.00,0,-999,0,0.00
2013-9-13,94,75,67,-100,-100,-100,0,0,100,0.00,40.00,0,-999,0,0.00
2013-9-14,89,80,74,-100,-100,-100,0,0,100,0.00,40.00,0,-999,0,0.00
2013-9-15,89,80,71,-100,-100,-100,0,0,100,0.00,40.00,0,-999,0,0.00
2013-9-16,91,81,70,-100,-100,-100,0,0,100,0.00,40.00,0,-999,0,0.00
2013-9-17,91,82,70,-100,-100,-100,0,0,100,0.00,40.00,0,-999,0,0.00
2013-9-18,79,75,72,-100,-100,-100,0,0,100,0.00,40.00,0,-999,0,0.00
2013-9-19,90,79,72,-100,-100,-100,0,0,100,0.00,40.00,0,-999,0,0.00
2013-9-20,75,71,68,-100,-100,-100,0,0,100,0.00,40.00,0,-999,0,0.00
2013-9-21,84,72,65,-100,-100,-100,0,0,100,0.00,40.00,0,-999,0,0.00
2013-9-22,81,67,56,-100,-100,-100,0,0,100,0.00,40.00,0,-999,0,0.00
2013-9-23,83,69,58,-100,-100,-100,0,0,100,0.00,40.00,0,-999,0,0.00
2013-9-24,91,77,65,-100,-100,-100,0,0,100,0.00,40.00,0,-999,0,0.00
2013-9-25,86,71,60,-100,-100,-100,0,0,100,0.00,40.00,0,-999,0,0.00
2013-9-26,90,73,62,-100,-100,-100,0,0,100,0.00,40.00,0,-999,0,0.00
2013-9-27,86,76,65,-100,-100,-100,0,0,100,0.00,40.00,0,-999,0,0.00
2013-9-28,80,74,70,-100,-100,-100,0,0,100,0.00,40.00,0,-999,0,0.00
2013-9-29,74,70,67,-100,-100,-100,0,0,100,0.00,40.00,0,-999,0,0.00
2013-9-30,82,72,67,-100,-100,-100,0,0,100,0.00,40.00,0,-999,0,0.00
2013-10-1,78,76,75,-100,-100,-100,0,0,100,0.00,40.00,0,-999,0,0.00
2013-10-2,86,74,71,-100,-100,-100,0,0,100,0.00,40.00,0,-999,0,0.00
2013-10-3,86,75,71,-100,-100,-100,0,0,100,0.00,40.00,0,-999,0,0.00
2013-10-4,84,74,70,-100,-100,-100,0,0,100,0.00,40.00,0,-999,0,0.00
2013-10-5,86,73,59,-100,-100,-100,0,0,100,0.00,40.00,0,-999,0,0.00
2013-10-6,79,63,53,-100,-100,-100,0,0,100,0.00,40.00,0,-999,0,0.00
2013-10-7,79,62,44,-100,-100,-100,0,0,100,0.00,40.00,0,-999,0,0.00
2013-10-8,75,59,46,-100,-100,-100,0,0,100,0.00,40.00,0,-999,0,0.00
2013-10-9,78,63,53,-100,-100,-100,0,0,100,0.00,40.00,0,-999,0,0.00
2013-10-10,83,70,56,-100,-100,-100,0,0,100,0.00,40.00,0,-999,0,0.00
2013-10-11,85,73,63,-100,-100,-100,0,0,100,0.00,40.00,0,-999,0,0.00
2013-10-12,80,70,65,-100,-100,-100,0,0,100,0.00,40.00,0,-999,0,0.00
2013-10-13,72,68,66,-100,-100,-100,0,0,100,0.00,40.00,0,-999,0,0.00
2013-10-14,76,71,67,-100,-100,-100,0,0,100,0.00,40.00,0,-999,0,0.00
2013-10-15,80,71,67,-100,-100,-100,0,0,100,0.00,40.00,0,-999,0,0.00
2013-10-16,60,57,55,-100,-100,-100,0,0,100,0.00,40.00,0,-999,0,0.00
2013-10-17,70,60,49,-100,-100,-100,0,0,100,0.00,40.00,0,-999,0,0.00
2013-10-18,68,57,48,-100,-100,-100,0,0,100,0.00,40.00,0,-999,0,0.00
2013-10-19,62,56,51,-100,-100,-100,0,0,100,0.00,40.00,0,-999,0,0.00
2013-10-20,71,56,38,-100,-100,-100,0,0,100,0.00,40.00,0,-999,0,0.00
2013-10-21,77,62,51,-100,-100,-100,0,0,100,0.00,40.00,0,-999,0,0.00
2013-10-22,74,61,55,-100,-100,-100,0,0,100,0.00,40.00,0,-999,0,0.00
2013-10-23,79,60,44,-100,-100,-100,0,0,100,0.00,40.00,0,-999,0,0.00
2013-10-24,81,64,47,-100,-100,-100,0,0,100,0.00,40.00,0,-999,0,0.00
2013-10-25,72,62,52,-100,-100,-100,0,0,100,0.00,40.00,0,-999,0,0.00
2013-10-26,77,64,51,-100,-100,-100,0,0,100,0.00,40.00,0,-999,0,0.00
2013-10-27,67,60,56,-100,-100,-100,0,0,100,0.00,40.00,0,-999,0,0.00
2013-10-28,77,65,56,-100,-100,-100,0,0,100,0.00,40.00,0,-999,0,0.00
2013-10-29,77,70,64,-100,-100,-100,0,0,100,0.00,40.00,0,-999,0,0.00
2013-10-30,68,66,63,-100,-100,-100,0,0,100,0.00,40.00,0,-999,0,0.00
2013-10-31,75,67,54,-100,-100,-100,0,0,100,0.00,40.00,0,-999,0,0.00
2013-11-1,72,58,46,-100,-100,-100,0,0,100,0.00,40.00,0,-999,0,0.00
2013-11-2,67,55,44,-100,-100,-100,0,0,100,0.00,40.00,0,-999,0,0.00
2013-11-3,65,52,36,-100,-100,-100,0,0,100,0.00,40.00,0,-999,0,0.00
2013-11-4,63,56,52,-100,-100,-100,0,0,100,0.00,40.00,0,-999,0,0.00
2013-11-5,68,64,60,-100,-100,-100,0,0,100,0.00,40.00,0,-999,0,0.00
2013-11-6,66,60,46,-100,-100,-100,0,0,100,0.00,40.00,0,-999,0,0.00
2013-11-7,60,48,36,-100,-100,-100,0,0,100,0.00,40.00,0,-999,0,0.00
2013-11-8,63,52,41,-100,-100,-100,0,0,100,0.00,40.00,0,-999,0,0.00
2013-11-9,60,54,47,-100,-100,-100,0,0,100,0.00,40.00,0,-999,0,0.00
2013-11-10,69,54,46,-100,-100,-100,0,0,100,0.00,40.00,0,-999,0,0.00
2013-11-11,68,53,42,-100,-100,-100,0,0,100,0.00,40.00,0,-999,0,0.00
2013-11-12,56,49,41,-100,-100,-100,0,0,100,0.00,40.00,0,-999,0,0.00
2013-11-13,55,40,25,-100,-100,-100,0,0,100,0.00,40.00,0,-999,0,0.00
2013-11-14,58,41,25,-100,-100,-100,0,0,100,0.00,40.00,0,-999,0,0.00
2013-11-15,71,55,46,-100,-100,-100,0,0,100,0.00,40.00,0,-999,0,0.00
2013-11-16,72,64,59,-100,-100,-100,0,0,100,0.00,40.00,0,-999,0,0.00
2013-11-17,84,72,63,-100,-100,-100,0,0,100,0.00,40.00,0,-999,0,0.00
2013-11-18,74,65,58,-100,-100,-100,0,0,100,0.00,40.00,0,-999,0,0.00
2013-11-19,65,57,49,-100,-100,-100,0,0,100,0.00,40.00,0,-999,0,0.00
2013-11-20,60,53,40,-100,-100,-100,0,0,100,0.00,40.00,0,-999,0,0.00
2013-11-21,72,65,59,-100,-100,-100,0,0,100,0.00,40.00,0,-999,0,0.00
2013-11-22,68,43,36,-100,-100,-100,0,0,100,0.00,40.00,0,-999,0,0.00
2013-11-23,41,39,35,-100,-100,-100,0,0,100,0.00,40.00,0,-999,0,0.00
2013-11-24,41,35,32,-100,-100,-100,0,0,100,0.00,40.00,0,-999,0,0.00
2013-11-25,36,34,32,-100,-100,-100,0,0,100,0.00,40.00,0,-999,0,0.00
2013-11-26,42,34,32,-100,-100,-100,0,0,100,0.00,40.00,0,-999,0,0.00
2013-11-27,47,33,25,-100,-100,-100,0,0,100,0.00,40.00,0,-999,0,0.00
2013-11-28,51,32,23,-100,-100,-100,0,0,100,0.00,40.00,0,-999,0,0.00
2013-11-29,55,40,25,-100,-100,-100,0,0,100,0.00,40.00,0,-999,0,0.00
2013-11-30,58,47,34,-100,-100,-100,0,0,100,0.00,40.00,0,-999,0,0.00
2013-12-1,68,58,51,-100,-100,-100,0,0,100,0.00,40.00,0,-999,0,0.00
2013-12-2,72,59,48,-100,-100,-100,0,0,100,0.00,40.00,0,-999,0,0.00
2013-12-3,76,60,50,-100,-100,-100,0,0,100,0.00,40.00,0,-999,0,0.00
2013-12-4,74,65,58,-100,-100,-100,0,0,100,0.00,40.00,0,-999,0,0.00
2013-12-5,65,43,30,-100,-100,-100,0,0,100,0.00,40.00,0,-999,0,0.00
2013-12-6,31,28,24,-100,-100,-100,0,0,100,0.00,40.00,0,-999,0,0.00
2013-12-7,29,27,24,-100,-100,-100,0,0,100,0.00,40.00,0,-999,0,0.00
2013-12-8,39,34,27,-100,-100,-100,0,0,100,0.00,40.00,0,-999,0,0.00
2013-12-9,37,35,30,-100,-100,-100,0,0,100,0.00,40.00,0,-999,0,0.00
2013-12-10,42,30,19,-100,-100,-100,0,0,100,0.00,40.00,0,-999,0,0.00
2013-12-11,51,34,20,-100,-100,-100,0,0,100,0.00,40.00,0,-999,0,0.00
2013-12-12,49,37,24,-100,-100,-100,0,0,100,0.00,40.00,0,-999,0,0.00
2013-12-13,39,38,34,-100,-100,-100,0,0,100,0.00,40.00,0,-999,0,0.00
2013-12-14,44,41,31,-100,-100,-100,0,0,100,0.00,40.00,0,-999,0,0.00
2013-12-15,49,34,22,-100,-100,-100,0,0,100,0.00,40.00,0,-999,0,0.00
2013-12-16,62,34,25,-100,-100,-100,0,0,100,0.00,40.00,0,-999,0,0.00
2013-12-17,68,41,34,-100,-100,-100,0,0,100,0.00,40.00,0,-999,0,0.00
2013-12-18,62,45,30,-100,-100,-100,0,0,100,0.00,40.00,0,-999,0,0.00
2013-12-19,72,60,48,-100,-100,-100,0,0,100,0.00,40.00,0,-999,0,0.00
2013-12-20,71,67,63,-100,-100,-100,0,0,100,0.00,40.00,0,-999,0,0.00
2013-12-21,67,54,42,-100,-100,-100,0,0,100,0.00,40.00,0,-999,0,0.00
2013-12-22,49,40,28,-100,-100,-100,0,0,100,0.00,40.00,0,-999,0,0.00
2013-12-23,46,31,24,-100,-100,-100,0,0,100,0.00,40.00,0,-999,0,0.00
2013-12-24,52,35,22,-100,-100,-100,0,0,100,0.00,40.00,0,-999,0,0.00
2013-12-25,55,41,30,-100,-100,-100,0,0,100,0.00,40.00,0,-999,0,0.00
2013-12-26,57,43,30,-100,-100,-100,0,0,100,0.00,40.00,0,-999,0,0.00
2013-12-27,57,42,31,-100,-100,-100,0,0,100,0.00,40.00,0,-999,0,0.00
2013-12-28,55,44,32,-100,-100,-100,0,0,100,0.00,40.00,0,-999,0,0.00
2013-12-29,57,42,32,-100,-100,-100,0,0,100,0.00,40.00,0,-999,0,0.00
2013-12-30,39,33,31,-100,-100,-100,0,0,100,0.00,40.00,0,-999,0,0.00
2013-12-31,52,35,25,-100,-100,-100,0,0,100,0.00,40.00,0,-999,0,0.00
2014-1-1,56,43,31,-100,-100,-100,0,0,100,0.00,40.00,0,-999,0,0.00
2014-1-2,51,33,24,-100,-100,-100,0,0,100,0.00,40.00,0,-999,0,0.00